Nuiqsut, AK

5:41 AM AKDT on May 30, 2017 (GMT -0800)
Nuiqsut

Weather History for PAQT - December, 2012

Change the Weather History Date:

Sunday, December 23, 2012

  Actual Average (PAKU) Record (PAKU)
Temperature  
Mean Temperature -4 °F -  
Max Temperature 1 °F -1 °F 27 °F (1983)
Min Temperature -9 °F -9 °F -45 °F (1991)
Degree Days  
Heating Degree Days 69    
Moisture  
Dew Point -4 °F    
Average Humidity 89    
Maximum Humidity 96    
Minimum Humidity 83    
Precipitation  
Precipitation 0.00 in - - ()
Sea Level Pressure  
Sea Level Pressure 30.29 in    
Wind  
Wind Speed 22 mph (ENE)    
Max Wind Speed 38 mph    
Max Gust Speed 47 mph    
Visibility 2 miles    
Events Fog , Snow    
Averages and records for this station are not official NWS values.
T = Trace of Precipitation, MM = Missing Value Source: NWS Daily Summary

Daily Weather History Graph

Daily Weather History Graph

Search for Another Location

Airport or City:

Trip Planner

Search our weather history database for the weather conditions in past years. The results will help you decide how hot, cold, wet, or windy it might be!

Date:

Astronomy

Dec. 31, 1969 Rise Set
Actual Time Sun does not set Sun does not set
Civil Twilight 11:03 AM AKST 3:03 PM AKST
Nautical Twilight 9:12 AM AKST 4:54 PM AKST
Astronomical Twilight 7:51 AM AKST 6:15 PM AKST
Moon 11:46 AM AKST (12/23) 7:02 AM AKST (12/23)
Length of Visible Light 3h 59m
Length of Day
0h 00m
Waxing Gibbous, 82% of the Moon is Illuminated
Dec 23
Waxing Gibbous
Dec 28
Full
Jan 4
Last Quarter
Jan 11
New
Jan 18
First Quarter

Hourly Weather History & Observations

Time (AKST) Temp. Windchill Dew Point Humidity Pressure Visibility Wind Dir Wind Speed Gust Speed Precip Events Conditions
12:53 AM -9.0 °F -32.4 °F -11.9 °F 87% 30.35 in 10.0 mi East 17.3 mph - N/A   Clear
1:53 AM -9.0 °F -29.3 °F -13.0 °F 83% 30.36 in 10.0 mi ENE 12.7 mph - N/A   Clear
3:53 AM -7.1 °F -31.0 °F -11.0 °F 83% 30.34 in 10.0 mi ENE 19.6 mph - N/A   Clear
4:53 AM -7.1 °F -29.8 °F -11.0 °F 83% 30.34 in 10.0 mi East 17.3 mph - N/A   Clear
5:53 AM -9.0 °F -25.2 °F -11.9 °F 87% 30.34 in 10.0 mi NE 8.1 mph - N/A   Clear
6:45 AM -9.4 °F -25.6 °F -11.2 °F 92% 30.32 in 2.5 mi ENE 8.1 mph - N/A   Scattered Clouds
6:53 AM -9.0 °F -27.4 °F -11.9 °F 87% 30.33 in 1.5 mi ENE 10.4 mph - N/A   Mostly Cloudy
7:53 AM -6.0 °F -23.6 °F -9.0 °F 87% 30.32 in 2.0 mi East 10.4 mph - N/A   Overcast
8:16 AM -5.8 °F -28.2 °F -7.6 °F 92% 30.31 in 3.0 mi ENE 17.3 mph - N/A   Overcast
8:34 AM -2.2 °F -25.2 °F -5.8 °F 85% 30.30 in 6.0 mi ENE 20.7 mph - N/A   Scattered Clouds
8:53 AM -2.9 °F -28.1 °F -5.1 °F 90% 30.30 in 2.5 mi ENE 25.3 mph - N/A   Clear
9:14 AM -2.2 °F -27.1 °F -5.8 °F 85% 30.30 in 1.2 mi ENE 25.3 mph - N/A   Scattered Clouds
9:20 AM -2.2 °F -28.4 °F -5.8 °F 85% 30.30 in 0.8 mi ENE 28.8 mph 34.5 mph N/A   Mist
9:53 AM -0.0 °F -26.6 °F -2.9 °F 88% 30.30 in 0.2 mi ENE 32.2 mph 38.0 mph 0.00 in Fog Light Freezing Fog
10:53 AM -0.0 °F -25.5 °F -2.0 °F 91% 30.30 in 0.5 mi ENE 28.8 mph - 0.00 in Fog , Snow Light Freezing Fog
11:32 AM 1.4 °F -26.3 °F -0.4 °F 92% 30.29 in 0.2 mi East 38.0 mph 46.0 mph 0.00 in Fog Light Freezing Fog
11:53 AM 1.0 °F -25.5 °F -2.0 °F 87% 30.30 in 0.2 mi East 33.4 mph 42.6 mph 0.00 in Fog Light Freezing Fog
12:04 PM 1.4 °F -24.6 °F -0.4 °F 92% 30.30 in 0.5 mi East 32.2 mph 38.0 mph 0.00 in Fog , Snow Light Freezing Fog
12:53 PM 1.0 °F -25.1 °F -0.9 °F 91% 30.31 in 0.5 mi East 32.2 mph 40.3 mph 0.00 in Fog , Snow Light Freezing Fog
1:05 PM 1.4 °F -23.9 °F -0.4 °F 92% 30.31 in 0.5 mi East 29.9 mph 38.0 mph 0.00 in Fog Light Freezing Fog
1:23 PM 1.4 °F -25.3 °F -0.4 °F 92% 30.29 in 0.2 mi East 34.5 mph 42.6 mph 0.00 in Fog Light Freezing Fog
1:53 PM 1.0 °F -26.1 °F -0.9 °F 91% 30.30 in 0.2 mi East 35.7 mph 47.2 mph 0.00 in Fog Light Freezing Fog
2:24 PM 1.4 °F -23.2 °F -0.4 °F 92% 30.31 in 0.5 mi East 27.6 mph 39.1 mph 0.00 in Fog Light Freezing Fog
2:37 PM 1.4 °F -22.3 °F -0.4 °F 92% 30.30 in 0.5 mi East 25.3 mph 35.7 mph 0.00 in Fog , Snow Light Freezing Fog
2:53 PM 1.9 °F -23.9 °F -0.0 °F 91% 30.29 in 0.2 mi East 32.2 mph 38.0 mph 0.00 in Fog Light Freezing Fog
3:53 PM 1.9 °F -24.3 °F -0.0 °F 91% 30.29 in 0.2 mi East 33.4 mph 43.7 mph 0.00 in Fog Light Freezing Fog
4:20 PM 1.4 °F -23.9 °F -0.4 °F 92% 30.28 in 0.5 mi East 29.9 mph 39.1 mph 0.00 in Fog , Snow Light Freezing Fog
4:53 PM 1.9 °F -22.4 °F -0.0 °F 91% 30.29 in 0.5 mi East 27.6 mph 34.5 mph 0.00 in Fog , Snow Light Freezing Fog
5:53 PM 1.9 °F -23.2 °F 1.0 °F 96% 30.27 in 0.5 mi East 29.9 mph 34.5 mph N/A Fog , Snow Light Freezing Fog
6:53 PM 1.9 °F -21.6 °F 1.0 °F 96% 30.26 in 0.5 mi ENE 25.3 mph - 0.00 in Fog , Snow Light Freezing Fog
7:53 PM 1.0 °F -22.4 °F -0.9 °F 91% 30.25 in 0.5 mi ENE 24.2 mph 32.2 mph N/A Fog , Snow Light Freezing Fog
8:01 PM 1.4 °F -23.2 °F -2.2 °F 85% 30.24 in 0.2 mi ENE 27.6 mph 34.5 mph 0.00 in Fog Light Freezing Fog
8:53 PM -0.0 °F -27.3 °F -2.0 °F 91% 30.21 in 0.2 mi ENE 34.5 mph 43.7 mph 0.00 in Fog , Snow Light Snow
9:53 PM -0.0 °F -26.3 °F -2.0 °F 91% 30.21 in 0.2 mi ENE 31.1 mph 39.1 mph 0.00 in Fog Light Freezing Fog
10:45 PM -0.4 °F -26.7 °F -2.2 °F 92% 30.18 in 0.2 mi ENE 31.1 mph 42.6 mph 0.00 in Fog Light Freezing Fog
10:53 PM -0.0 °F - -2.9 °F 88% 30.18 in 0.2 mi North - - 0.00 in Fog , Snow Light Snow
11:53 PM -0.0 °F - -2.9 °F 88% 30.17 in 0.2 mi North - - 0.00 in Fog , Snow Snow